1536645600.14,2467,17.69,74520.5,4.73,-11.51,-12.11,0,*4D
1536645601.35,2468,17.69,74522.5,4.73,-11.51,-12.25,0,*45
1536645602.6,2469,17.69,74520.0,4.73,-11.55,-12.35,0,*41
1536645603.85,2470,17.69,74522.0,4.73,-11.51,-12.11,0,*4B
1536645605.06,2471,17.69,74522.0,4.73,-11.51,-12.25,0,*4D
1536645606.26,2472,17.69,74518.5,4.73,-11.41,-12.25,0,*4F
1536645607.47,2473,17.69,74520.0,4.73,-11.51,-12.25,0,*4F
1536645608.7,2474,17.69,74522.8,4.73,-11.41,-12.11,0,*4E
1536645609.92,2475,17.69,74520.3,4.73,-11.51,-12.21,0,*4D
1536645611.13,2476,17.69,74522.8,4.73,-11.51,-12.25,0,*4A
1536645612.35,2477,17.69,74522.8,4.73,-11.51,-12.21,0,*4F
1536645613.55,2478,17.69,74520.3,4.73,-11.41,-12.21,0,*41
1536645614.78,2479,17.69,74522.5,4.75,-11.41,-12.21,0,*46
1536645616.03,2480,17.69,74524.3,4.75,-11.55,-12.25,0,*41
1536645617.3,2481,17.69,74526.3,4.75,-11.55,-12.35,0,*41
1536645618.55,2482,17.69,74524.5,4.75,-11.59,-12.39,0,*42
1536645619.8,2483,17.69,74522.0,4.75,-11.55,-12.25,0,*42
1536645621.07,2484,17.69,74522.3,4.75,-11.55,-12.35,0,*44
1536645622.34,2485,17.69,74522.5,4.75,-11.67,-12.57,0,*40
1536645623.61,2486,17.69,74520.0,4.75,-11.81,-12.57,0,*4B
1536645624.89,2487,17.69,74522.0,4.75,-11.93,-12.83,0,*40
1536645626.16,2488,17.69,74518.8,4.75,-12.07,-12.83,0,*41
1536645627.4,2489,17.69,74520.0,4.77,-11.89,-12.65,0,*4F
1536645628.67,2490,17.69,74520.0,4.75,-11.73,-12.53,0,*45
1536645629.92,2491,17.69,74518.3,4.75,-11.67,-12.39,0,*4D
1536645631.17,2492,17.69,74516.0,4.75,-11.59,-12.43,0,*4E
1536645632.41,2493,17.69,74518.0,4.73,-11.59,-12.35,0,*48
1536645633.63,2494,17.69,74518.5,4.73,-11.67,-12.43,0,*43
1536645634.9,2495,17.69,74518.0,4.75,-11.81,-12.57,0,*49
1536645636.15,2496,17.69,74520.8,4.75,-11.59,-12.43,0,*4A
1536645637.4,2497,17.69,74522.3,4.75,-11.59,-12.39,0,*46
1536645638.67,2498,17.69,74522.8,4.75,-11.51,-12.35,0,*4D
1536645639.94,2499,17.69,74520.3,4.75,-11.81,-12.53,0,*41
1536645641.16,2500,17.69,74520.8,4.77,-11.37,-12.21,0,*4A
1536645642.38,2501,17.69,74518.5,4.75,-11.41,-12.25,0,*4C
1536645643.66,2502,17.69,74522.5,4.75,-11.93,-12.79,0,*49
1536645644.93,2503,17.69,74522.5,4.75,-11.73,-12.57,0,*4A
1536645646.18,2504,17.69,74520.5,4.75,-11.59,-12.29,0,*4C
1536645647.39,2505,17.69,74524.8,4.77,-11.45,-12.21,0,*4A
1536645648.61,2506,17.69,74522.0,4.75,-11.41,-12.21,0,*4F
1536645649.82,2507,17.69,74524.3,4.77,-11.45,-12.21,0,*48
1536645651.09,2508,17.69,74520.8,4.75,-11.29,-12.11,0,*4C
1536645652.32,2509,17.69,74526.5,4.77,-11.33,-12.21,0,*47
1536645653.55,2510,17.69,74520.5,4.77,-11.45,-12.35,0,*4B
1536645654.78,2511,17.69,74524.5,4.77,-11.55,-12.39,0,*47
1536645656.05,2512,17.69,74526.3,4.75,-11.29,-12.11,0,*47
1536645657.3,2513,17.69,74520.0,4.77,-11.37,-12.15,0,*4F
1536645658.51,2514,17.69,74520.3,4.77,-11.19,-12.07,0,*47
1536645659.74,2515,17.69,74522.8,4.77,-11.11,-12.07,0,*4E
1536645660.94,2516,17.69,74524.3,4.77,-11.45,-12.29,0,*40
1536645662.17,2517,17.69,74520.3,4.77,-11.37,-12.21,0,*4C
1536645663.44,2518,17.69,74522.3,4.79,-11.29,-12.11,0,*41
1536645664.69,2519,17.69,74520.5,4.79,-11.29,-12.03,0,*43
1536645665.94,2520,17.69,74520.3,4.81,-11.29,-12.11,0,*4D
1536645667.15,2521,17.69,74522.0,4.81,-11.45,-12.29,0,*4D
1536645668.36,2522,17.69,74522.5,4.81,-11.33,-12.25,0,*43
1536645669.61,2523,17.69,74522.0,4.79,-11.19,-12.11,0,*4A
1536645670.88,2524,17.69,74522.3,4.79,-11.33,-12.15,0,*41
1536645672.13,2525,17.69,74524.0,4.81,-11.29,-12.11,0,*48
1536645673.37,2526,17.69,74520.0,4.81,-11.63,-12.57,0,*47
1536645674.62,2527,17.69,74522.8,4.81,-11.51,-12.35,0,*43
1536645675.9,2528,17.69,74520.8,4.79,-11.63,-12.71,0,*4A
1536645677.15,2529,17.69,74522.5,4.79,-11.59,-12.47,0,*47
1536645678.39,2530,17.69,74520.3,4.79,-11.63,-12.47,0,*46
1536645679.61,2531,17.69,74520.0,4.81,-11.51,-12.43,0,*45
1536645680.81,2532,17.69,74520.3,4.81,-11.45,-12.43,0,*43
1536645682.01,2533,17.69,74522.8,4.81,-11.41,-12.29,0,*4A
1536645683.24,2534,17.69,74524.0,4.81,-11.45,-12.35,0,*44
1536645684.44,2535,17.69,74522.5,4.81,-11.41,-12.29,0,*4C
1536645685.71,2536,17.69,74522.5,4.79,-11.63,-12.57,0,*41
1536645686.96,2537,17.69,74526.0,4.79,-11.63,-12.47,0,*41
1536645688.21,2538,17.69,74524.5,4.79,-11.33,-12.25,0,*4F
1536645689.42,2539,17.69,74520.3,4.81,-11.51,-12.43,0,*4D
1536645690.66,2540,17.69,74520.3,4.79,-11.45,-12.29,0,*4D
1536645691.93,2541,17.69,74518.8,4.79,-11.85,-12.83,0,*40
1536645693.15,2542,17.69,74520.5,4.81,-11.33,-12.29,0,*49
1536645694.36,2543,17.69,74522.8,4.85,-11.37,-12.25,0,*44
1536645695.61,2544,17.69,74524.8,4.81,-11.51,-12.35,0,*46
1536645696.83,2545,17.69,74524.8,4.81,-11.29,-12.25,0,*49
1536645698.08,2546,17.69,74522.3,4.81,-11.63,-12.57,0,*41
1536645699.28,2547,17.69,74522.8,4.81,-11.41,-12.29,0,*49
1536645700.48,2548,17.69,74520.0,4.81,-11.41,-12.29,0,*46
1536645701.72,2549,17.69,74520.0,4.79,-11.51,-12.47,0,*49
1536645702.96,2550,17.69,74520.0,4.81,-11.33,-12.15,0,*45
1536645704.16,2551,17.69,74518.5,4.81,-11.41,-12.29,0,*4E
1536645705.36,2552,17.69,74518.8,4.85,-11.41,-12.29,0,*49
1536645706.61,2553,17.69,74518.5,4.81,-11.63,-12.57,0,*45
1536645707.8,2554,17.69,74520.0,4.85,-11.41,-12.25,0,*43
1536645709.01,2555,17.69,74518.8,4.85,-11.45,-12.29,0,*4A
1536645710.21,2556,17.69,74516.0,4.85,-11.45,-12.39,0,*48
1536645711.42,2557,17.69,74518.0,4.85,-11.37,-12.25,0,*41
1536645712.65,2558,17.69,74516.5,4.85,-11.29,-12.25,0,*41
1536645713.84,2559,17.69,74516.8,4.85,-11.23,-12.25,0,*4A
1536645715.09,2560,17.69,74518.5,4.85,-11.55,-12.53,0,*40
1536645716.32,2561,17.69,74518.8,4.87,-11.41,-12.29,0,*4B
1536645717.54,2562,17.69,74516.3,4.87,-11.45,-12.43,0,*40
1536645718.74,2563,17.69,74518.3,4.85,-11.45,-12.39,0,*4E
1536645720.02,2564,17.69,74520.8,4.87,-11.67,-12.71,0,*47
1536645721.27,2565,17.69,74518.0,4.87,-12.11,-13.11,0,*43
1536645722.49,2566,17.69,74518.8,4.85,-12.07,-13.11,0,*45
1536645723.7,2567,17.69,74518.0,4.85,-12.11,-13.07,0,*44
1536645724.95,2568,17.69,74516.3,4.85,-11.73,-12.79,0,*44
1536645726.17,2569,17.69,74516.3,4.85,-11.55,-12.43,0,*48
1536645727.39,2570,17.69,74516.0,4.85,-11.97,-12.93,0,*43
1536645728.63,2571,17.69,74522.0,4.85,-11.67,-12.65,0,*44
1536645729.85,2572,17.69,74516.0,4.85,-11.55,-12.43,0,*42
1536645731.04,2573,17.69,74520.5,4.85,-11.41,-12.25,0,*46
1536645732.26,2574,17.69,74516.0,4.85,-11.55,-12.43,0,*44
1536645733.47,2575,17.69,74522.0,4.85,-11.45,-12.43,0,*44
1536645734.71,2576,17.69,74516.5,4.85,-11.59,-12.57,0,*4F
1536645735.96,2577,17.69,74518.5,4.85,-11.67,-12.53,0,*47
1536645737.18,2578,17.69,74520.0,4.85,-11.59,-12.43,0,*44
1536645738.42,2579,17.69,74522.0,4.85,-11.73,-12.71,0,*4C
1536645739.7,2580,17.69,74524.3,4.87,-11.55,-12.53,0,*4C
1536645740.95,2581,17.69,74524.8,4.85,-11.67,-12.71,0,*4E
1536645742.2,2582,17.69,74522.8,4.85,-11.85,-12.71,0,*41
1536645743.47,2583,17.69,74524.5,4.87,-11.67,-12.53,0,*4E
1536645744.74,2584,17.69,74520.8,4.87,-11.73,-12.79,0,*44
1536645745.99,2585,17.69,74520.3,4.85,-11.55,-12.53,0,*4B
1536645747.22,2586,17.69,74522.3,4.87,-11.45,-12.43,0,*4A
1536645748.42,2587,17.69,74522.8,4.85,-11.45,-12.43,0,*49
1536645749.66,2588,17.69,74522.8,4.85,-11.55,-12.53,0,*46
1536645750.94,2589,17.69,74524.3,4.87,-11.55,-12.53,0,*45
1536645752.16,2590,17.69,74520.3,4.87,-11.41,-12.39,0,*44
1536645753.41,2591,17.69,74524.0,4.87,-11.37,-12.29,0,*45
1536645754.64,2592,17.69,74524.5,4.87,-11.45,-12.39,0,*42
1536645755.87,2593,17.69,74524.0,4.87,-11.45,-12.43,0,*4E
1536645757.14,2594,17.69,74522.5,4.87,-11.59,-12.57,0,*41
1536645758.41,2595,17.69,74520.5,4.87,-11.59,-12.53,0,*44
1536645759.68,2596,17.69,74524.3,4.87,-11.55,-12.57,0,*4F
1536645760.9,2597,17.69,74522.8,4.89,-11.55,-12.47,0,*41
1536645762.14,2598,17.69,74516.0,4.89,-11.77,-12.75,0,*4F
1536645763.42,2599,17.69,74516.3,4.87,-11.67,-12.71,0,*45
1536645764.69,2600,17.69,74518.5,4.87,-11.67,-12.65,0,*43
1536645765.9,2601,17.69,74516.5,4.89,-11.51,-12.39,0,*40
1536645767.14,2602,17.69,74520.8,4.89,-11.67,-12.65,0,*4F
1536645768.38,2603,17.69,74524.0,4.89,-11.55,-12.53,0,*4A
1536645769.59,2604,17.69,74524.0,4.89,-12.21,-13.19,0,*42
1536645770.83,2605,17.69,74524.0,4.89,-11.77,-12.75,0,*48
1536645772.04,2606,17.69,74522.5,4.89,-11.81,-12.89,0,*41
1536645773.29,2607,17.69,74522.0,4.89,-11.67,-12.75,0,*4B
1536645774.51,2608,17.69,74522.8,4.89,-11.89,-12.93,0,*4C
1536645775.77,2609,17.69,74522.8,4.87,-11.81,-12.79,0,*4F
1536645777.04,2610,17.69,74520.0,4.87,-11.67,-12.65,0,*42
1536645778.32,2611,17.69,74524.8,4.87,-11.67,-12.71,0,*46
1536645779.59,2612,17.69,74522.8,4.87,-11.67,-12.65,0,*40
1536645780.87,2613,17.69,74520.3,4.87,-11.67,-12.71,0,*44
1536645782.14,2614,17.69,74524.3,4.87,-11.73,-12.71,0,*46
1536645783.38,2615,17.69,74526.0,4.89,-11.63,-12.61,0,*49
1536645784.63,2616,17.69,74524.8,4.89,-11.55,-12.53,0,*4E
1536645785.87,2617,17.69,74524.5,4.89,-11.67,-12.75,0,*4A
1536645787.11,2618,17.69,74526.3,4.89,-11.63,-12.65,0,*40
1536645788.35,2619,17.69,74526.0,4.89,-11.77,-12.75,0,*45
1536645789.59,2620,17.69,74526.3,4.89,-11.77,-12.75,0,*4F
1536645790.8,2621,17.69,74520.8,4.89,-12.03,-13.01,0,*4C
1536645792.02,2622,17.69,74524.8,4.89,-11.81,-12.93,0,*4C
1536645793.23,2623,17.69,74524.3,4.89,-11.93,-13.07,0,*42
1536645794.48,2624,17.69,74522.8,4.91,-12.29,-13.33,0,*49
1536645795.74,2625,17.69,74522.8,4.87,-12.71,-13.79,0,*4C
1536645796.93,2626,17.69,74522.0,4.85,-13.07,-14.11,0,*44
1536645798.14,2627,17.69,74520.5,4.85,-12.83,-13.93,0,*45
1536645799.37,2628,17.69,74518.5,4.81,-12.83,-13.87,0,*4B
1536645800.58,2629,17.69,74518.0,4.81,-12.61,-13.69,0,*46
1536645801.83,2630,17.69,74522.0,4.81,-12.35,-13.33,0,*40
1536645803.07,2631,17.69,74522.0,4.79,-12.15,-13.15,0,*40
1536645804.29,2632,17.69,74518.5,4.81,-12.29,-13.29,0,*44
1536645805.53,2633,17.69,74520.0,4.81,-11.85,-12.83,0,*41
1536645806.75,2634,17.69,74520.0,4.81,-12.15,-13.23,0,*47
1536645807.95,2635,17.69,74524.8,4.81,-12.25,-13.23,0,*45
1536645809.17,2636,17.69,74518.8,4.81,-12.11,-13.11,0,*40
1536645810.44,2637,17.69,74520.5,4.79,-11.73,-12.71,0,*46
1536645811.68,2638,17.69,74520.8,4.81,-11.73,-12.75,0,*4A
1536645812.9,2639,17.69,74526.5,4.81,-12.03,-13.01,0,*4D
1536645814.09,2640,17.69,74524.0,4.81,-12.03,-12.97,0,*4D
1536645815.31,2641,17.69,74524.0,4.81,-11.89,-12.89,0,*42
1536645816.56,2642,17.69,74520.5,4.81,-11.97,-12.83,0,*44
1536645817.78,2643,17.69,74522.8,4.81,-11.89,-12.89,0,*40
1536645819.02,2644,17.69,74524.0,4.81,-11.77,-12.83,0,*4C
1536645820.26,2645,17.69,74526.0,4.81,-11.59,-12.57,0,*48
1536645821.51,2646,17.69,74522.5,4.81,-11.85,-12.83,0,*43
1536645822.74,2647,17.69,74520.8,4.81,-11.97,-13.01,0,*4A
1536645823.99,2648,17.69,74508.5,4.81,-11.89,-12.83,0,*41
1536645825.21,2649,17.69,74514.0,4.81,-11.89,-12.89,0,*4A
1536645826.45,2650,17.69,74524.8,4.81,-11.89,-13.01,0,*43
1536645827.67,2651,17.69,74520.0,4.81,-11.97,-12.97,0,*43
1536645828.89,2652,17.69,74522.0,4.81,-11.85,-12.89,0,*4C
1536645830.1,2653,17.69,74516.8,4.81,-12.11,-13.15,0,*47
1536645831.32,2654,17.69,74522.5,4.81,-11.89,-12.97,0,*49
1536645832.57,2655,17.69,74516.5,4.81,-11.73,-12.71,0,*45
1536645833.79,2656,17.69,74518.5,4.85,-12.11,-13.11,0,*42
1536645835.0,2657,17.69,74522.5,4.85,-12.39,-13.37,0,*4D
1536645836.21,2658,17.69,74518.5,4.85,-12.21,-13.19,0,*47
1536645837.43,2659,17.69,74506.3,4.85,-12.11,-13.19,0,*45
1536645838.63,2660,17.69,74504.3,4.85,-12.21,-13.11,0,*44
1536645839.87,2661,17.69,74514.0,4.81,-11.85,-12.83,0,*46
1536645841.09,2662,17.69,74510.8,4.81,-12.11,-13.11,0,*41
1536645842.31,2663,17.69,74504.5,4.81,-12.15,-13.11,0,*44
1536645843.5,2664,17.69,74502.3,4.81,-12.43,-13.43,0,*47
1536645844.7,2665,17.69,74516.0,4.81,-12.25,-13.23,0,*40
1536645845.89,2666,17.69,74508.8,4.81,-12.25,-13.23,0,*43
1536645847.16,2667,17.69,74502.0,4.79,-12.61,-13.61,0,*43
1536645848.38,2668,17.69,74508.5,4.81,-12.25,-13.29,0,*47
1536645849.65,2669,17.69,74510.8,4.79,-12.35,-13.33,0,*4B
1536645850.88,2670,17.69,74514.0,4.79,-12.25,-13.23,0,*43
1536645852.09,2671,17.69,74526.5,4.81,-12.03,-13.01,0,*41
1536645853.3,2672,17.69,74526.5,4.81,-12.15,-13.15,0,*40
1536645854.53,2673,17.69,74520.8,4.81,-11.97,-12.97,0,*43
1536645855.77,2674,17.69,74522.5,4.81,-11.85,-12.83,0,*42
1536645856.98,2675,17.69,74520.5,4.81,-12.03,-13.01,0,*45
1536645858.23,2676,17.69,74520.0,4.79,-12.15,-13.23,0,*46
1536645859.47,2677,17.69,74514.8,4.79,-12.25,-13.29,0,*4E
1536645860.69,2678,17.69,74514.3,4.81,-11.89,-12.89,0,*48
1536645861.94,2679,17.69,74524.0,4.79,-12.29,-13.29,0,*4C
1536645863.18,2680,17.69,74518.5,4.81,-11.77,-12.83,0,*44
1536645864.43,2681,17.69,74516.5,4.81,-11.85,-12.83,0,*48
1536645865.67,2682,17.69,74514.5,4.81,-11.73,-12.71,0,*4F
1536645866.92,2683,17.69,74514.5,4.81,-11.77,-12.75,0,*4E
1536645868.16,2684,17.69,74518.0,4.81,-11.97,-13.01,0,*45
1536645869.37,2685,17.69,74526.5,4.81,-12.11,-13.15,0,*4C
1536645870.56,2686,17.69,74514.8,4.81,-12.43,-13.43,0,*4B
1536645871.78,2687,17.69,74518.5,4.81,-12.11,-13.11,0,*4A
1536645873.05,2688,17.69,74518.3,4.79,-11.85,-12.83,0,*46
1536645874.29,2689,17.69,74520.5,4.81,-11.89,-13.01,0,*47
1536645875.5,2690,17.69,74518.0,4.81,-12.03,-13.01,0,*4E
1536645876.74,2691,17.69,74520.8,4.81,-11.85,-12.83,0,*49
1536645877.99,2692,17.69,74520.3,4.85,-11.73,-12.79,0,*42
1536645879.21,2693,17.69,74522.5,4.81,-11.97,-12.97,0,*4D
1536645880.43,2694,17.69,74518.0,4.85,-12.11,-13.19,0,*44
1536645881.65,2695,17.69,74520.5,4.85,-12.07,-13.07,0,*4D
1536645882.89,2696,17.69,74520.8,4.85,-11.81,-12.83,0,*4E
1536645884.11,2697,17.69,74520.8,4.85,-11.93,-12.93,0,*4D
1536645885.33,2698,17.69,74520.0,4.85,-11.97,-12.97,0,*42
1536645886.56,2699,17.69,74526.3,4.85,-11.93,-12.97,0,*47
1536645887.8,2700,17.69,74522.5,4.85,-11.73,-12.79,0,*48
1536645889.04,2701,17.69,74524.0,4.85,-11.85,-12.83,0,*45
1536645890.29,2702,17.69,74522.8,4.85,-11.93,-12.83,0,*41
1536645891.54,2703,17.69,74520.8,4.85,-11.73,-12.79,0,*4B
1536645892.74,2704,17.69,74518.5,4.85,-12.25,-13.19,0,*4B
1536645893.96,2705,17.69,74522.0,4.85,-12.07,-13.07,0,*45
1536645895.21,2706,17.69,74518.8,4.87,-11.93,-12.93,0,*46
1536645896.46,2707,17.69,74520.0,4.87,-12.07,-13.19,0,*4A
1536645897.69,2708,17.69,74516.0,4.87,-12.25,-13.19,0,*45
1536645898.91,2709,17.69,74518.3,4.85,-11.97,-12.93,0,*4F
1536645900.15,2710,17.69,74520.8,4.85,-11.81,-12.79,0,*44
1536645901.4,2711,17.69,74520.5,4.85,-11.67,-12.79,0,*4D
1536645902.63,2712,17.69,74520.3,4.87,-12.21,-13.11,0,*42
1536645903.85,2713,17.69,74518.3,4.85,-12.07,-12.93,0,*4E
1536645905.08,2714,17.69,74516.0,4.87,-12.21,-13.23,0,*45
1536645906.33,2715,17.69,74518.0,4.87,-11.93,-12.97,0,*40
1536645907.58,2716,17.69,74516.0,4.87,-11.93,-12.93,0,*47
1536645908.82,2717,17.69,74518.0,4.85,-11.85,-12.83,0,*42
1536645910.04,2718,17.69,74520.8,4.85,-11.97,-13.07,0,*43
1536645911.25,2719,17.69,74526.5,4.85,-11.97,-13.07,0,*42
1536645912.5,2720,17.69,74526.0,4.87,-12.11,-13.11,0,*40
1536645913.74,2721,17.69,74526.0,4.87,-12.25,-13.29,0,*4D
1536645915.01,2722,17.69,74520.3,4.87,-12.83,-13.83,0,*42
1536645916.2,2723,17.69,74520.3,4.85,-13.19,-14.11,0,*4F
1536645917.43,2724,17.69,74524.0,4.85,-12.83,-13.83,0,*46
1536645918.65,2725,17.69,74522.3,4.85,-12.71,-13.69,0,*4E
1536645919.86,2726,17.69,74524.8,4.81,-12.89,-13.87,0,*4E
1536645921.08,2727,17.69,74524.3,4.79,-12.97,-14.11,0,*4F
1536645922.33,2728,17.69,74520.5,4.79,-12.97,-13.97,0,*49
1536645923.56,2729,17.69,74522.8,4.79,-12.61,-13.69,0,*40
1536645924.83,2730,17.69,74524.0,4.79,-12.11,-13.01,0,*41
1536645926.08,2731,17.69,74524.8,4.79,-12.29,-13.33,0,*4A
1536645927.3,2732,17.69,74524.8,4.77,-12.15,-13.07,0,*4F
1536645928.51,2733,17.69,74516.0,4.77,-12.61,-13.65,0,*49
1536645929.74,2734,17.69,74518.3,4.77,-12.35,-13.19,0,*44
1536645931.01,2735,17.69,74524.0,4.79,-11.77,-12.83,0,*4C
1536645932.26,2736,17.69,74526.5,4.79,-11.89,-12.89,0,*44
1536645933.5,2737,17.69,74516.0,4.79,-12.15,-13.15,0,*47
1536645934.73,2738,17.69,74516.5,4.79,-12.25,-13.15,0,*4B
1536645935.97,2739,17.69,74518.5,4.79,-12.11,-12.97,0,*46
1536645937.24,2740,17.69,74522.3,4.79,-11.97,-12.83,0,*40
1536645938.51,2741,17.69,74522.3,4.79,-11.85,-12.83,0,*42
1536645939.76,2742,17.69,74518.0,4.81,-11.77,-12.71,0,*46
1536645941.01,2743,17.69,74520.5,4.81,-11.85,-12.75,0,*4E
1536645942.25,2744,17.69,74520.0,4.81,-11.73,-12.61,0,*45
1536645943.5,2745,17.69,74518.8,4.81,-11.85,-12.75,0,*48
1536645944.72,2746,17.69,74518.0,4.79,-12.03,-12.97,0,*4D
1536645945.96,2747,17.69,74516.3,4.81,-12.11,-13.01,0,*46
1536645947.2,2748,17.69,74520.0,4.81,-11.73,-12.71,0,*48
1536645948.45,2749,17.69,74522.8,4.81,-11.77,-12.75,0,*49
1536645949.7,2750,17.69,74520.5,4.81,-11.77,-12.75,0,*41
1536645950.94,2751,17.69,74522.0,4.81,-11.85,-12.83,0,*44
1536645952.18,2752,17.69,74522.0,4.85,-11.81,-12.71,0,*4A
1536645953.43,2753,17.69,74520.0,4.85,-11.55,-12.53,0,*42
1536645954.7,2754,17.69,74520.3,4.87,-11.67,-12.57,0,*42
1536645955.95,2755,17.69,74522.8,4.85,-11.67,-12.71,0,*45
1536645957.2,2756,17.69,74520.8,4.85,-11.67,-12.57,0,*42
1536645958.44,2757,17.69,74520.8,4.85,-11.59,-12.57,0,*4E
1536645959.71,2758,17.69,74522.3,4.87,-11.81,-12.71,0,*42
1536645960.96,2759,17.69,74518.8,4.85,-11.93,-12.83,0,*4F
1536645962.23,2760,17.69,74524.3,4.87,-11.73,-12.79,0,*4C
1536645963.48,2761,17.69,74520.5,4.87,-11.97,-12.97,0,*47
1536645964.73,2762,17.69,74524.3,4.87,-11.97,-12.97,0,*44
1536645966.0,2763,17.69,74522.8,4.87,-11.67,-12.71,0,*42
1536645967.23,2764,17.69,74524.8,4.87,-12.25,-13.23,0,*46
1536645968.47,2765,17.69,74530.8,4.87,-12.39,-13.29,0,*40
1536645969.69,2766,17.69,74524.0,4.87,-12.43,-13.23,0,*44
1536645970.9,2767,17.69,74520.3,4.87,-12.43,-13.43,0,*43
1536645972.14,2768,17.69,74520.8,4.87,-12.79,-13.69,0,*4D
1536645973.35,2769,17.69,74520.0,4.85,-12.71,-13.65,0,*4A
1536645974.55,2770,17.69,74520.0,4.85,-12.21,-13.07,0,*43
1536645975.75,2771,17.69,74522.8,4.85,-12.21,-13.11,0,*45
1536645976.95,2772,17.69,74522.0,4.85,-12.21,-13.07,0,*41
1536645978.19,2773,17.69,74520.0,4.85,-11.81,-12.79,0,*41
1536645979.46,2774,17.69,74524.5,4.87,-11.67,-12.65,0,*41
1536645980.7,2775,17.69,74522.3,4.85,-11.67,-12.65,0,*42
1536645981.95,2776,17.69,74522.3,4.87,-11.55,-12.43,0,*46
1536645983.19,2777,17.69,74520.5,4.87,-11.59,-12.43,0,*4B
1536645984.46,2778,17.69,74518.8,4.87,-11.67,-12.57,0,*4C
1536645985.74,2779,17.69,74522.3,4.87,-11.59,-12.53,0,*44
1536645986.98,2780,17.69,74522.0,4.89,-11.67,-12.65,0,*44
1536645988.21,2781,17.69,74524.0,4.89,-11.63,-12.65,0,*41
1536645989.45,2782,17.69,74520.8,4.89,-11.77,-12.65,0,*47
1536645990.69,2783,17.69,74526.0,4.89,-11.51,-12.35,0,*47
1536645991.93,2784,17.69,74522.0,4.89,-11.67,-12.65,0,*40
1536645993.18,2785,17.69,74520.8,4.91,-11.33,-12.21,0,*49
1536645994.44,2786,17.69,74524.5,4.91,-11.51,-12.35,0,*4B
1536645995.68,2787,17.69,74522.5,4.93,-11.45,-12.21,0,*48
1536645996.93,2788,17.69,74526.5,4.93,-11.33,-12.21,0,*46
1536645998.18,2789,17.69,74524.0,4.93,-11.37,-12.21,0,*43
1536645999.43,2790,17.69,74524.3,4.93,-11.51,-12.29,0,*43
1536646000.64,2791,17.69,74526.8,4.95,-11.45,-12.25,0,*4D
1536646001.89,2792,17.69,74524.5,4.95,-11.29,-12.11,0,*43
1536646003.14,2793,17.69,74526.3,4.95,-11.29,-12.15,0,*46
1536646004.37,2794,17.69,74526.8,4.95,-11.23,-11.97,0,*42
1536646005.6,2795,17.69,74526.0,4.95,-11.11,-11.93,0,*46
1536646006.84,2796,17.69,74524.3,4.97,-11.01,-11.85,0,*41
1536646008.1,2797,17.69,74526.0,4.99,-11.29,-12.11,0,*4A
1536646009.3,2798,17.69,74522.0,4.99,-11.41,-12.39,0,*41
1536646010.52,2799,17.69,74526.0,4.99,-11.37,-12.21,0,*48
1536646011.75,2800,17.69,74526.5,4.99,-11.55,-12.47,0,*43
1536646012.97,2801,17.69,74522.3,4.99,-11.23,-12.07,0,*47
1536646014.21,2802,17.69,74522.3,4.99,-11.41,-12.35,0,*41
1536646015.48,2803,17.69,74524.5,5.01,-11.07,-11.89,0,*46
1536646016.72,2804,17.69,74520.5,5.01,-11.15,-11.97,0,*4D
1536646017.94,2805,17.69,74520.8,5.03,-11.23,-12.07,0,*41
1536646019.17,2806,17.69,74526.8,5.03,-11.23,-12.07,0,*42
1536646020.39,2807,17.69,74520.0,5.03,-11.33,-12.21,0,*46
1536646021.61,2808,17.69,74522.0,5.03,-11.19,-12.07,0,*45
1536646022.83,2809,17.69,74524.3,5.03,-11.01,-11.85,0,*44
1536646024.05,2810,17.69,74526.0,5.03,-11.15,-11.97,0,*4A
1536646025.28,2811,17.69,74520.0,5.03,-11.23,-12.07,0,*44
1536646026.5,2812,17.69,74524.8,5.07,-11.11,-11.93,0,*4C
1536646027.77,2813,17.69,74524.5,5.09,-11.29,-12.11,0,*41
1536646029.01,2814,17.69,74530.0,5.09,-11.11,-11.97,0,*40
1536646030.26,2815,17.69,74524.3,5.09,-11.33,-12.25,0,*4B
1536646031.5,2816,17.69,74526.5,5.09,-11.67,-12.43,0,*49
1536646032.73,2817,17.69,74526.5,5.09,-11.41,-12.39,0,*41
1536646033.94,2818,17.69,74522.0,5.11,-11.37,-12.25,0,*4B
1536646035.21,2819,17.69,74522.0,5.13,-11.37,-12.35,0,*49
1536646036.43,2820,17.69,74524.0,5.11,-11.11,-11.89,0,*41
1536646037.64,2821,17.69,74522.0,5.13,-11.19,-12.03,0,*4B
1536646038.9,2822,17.69,74524.0,5.13,-11.33,-12.15,0,*47
1536646040.15,2823,17.69,74524.5,5.13,-11.11,-11.89,0,*40
1536646041.39,2824,17.69,74524.8,5.13,-11.33,-12.29,0,*4E
1536646042.63,2825,17.69,74524.3,5.13,-11.59,-12.47,0,*4B
1536646043.85,2826,17.69,74526.8,5.13,-12.21,-13.15,0,*42
1536646045.1,2827,17.69,74524.0,5.13,-12.15,-13.19,0,*48
1536646046.32,2828,17.69,74526.0,5.11,-12.07,-13.19,0,*46
1536646047.54,2829,17.69,74524.8,5.11,-12.11,-13.11,0,*48
1536646048.76,2830,17.69,74520.5,5.11,-12.07,-12.97,0,*48
1536646049.98,2831,17.69,74520.0,5.11,-11.55,-12.47,0,*40
1536646051.23,2832,17.69,74522.0,5.13,-11.45,-12.35,0,*45
1536646052.45,2833,17.69,74518.5,5.11,-11.23,-12.07,0,*47
1536646053.69,2834,17.69,74520.0,5.13,-11.11,-11.93,0,*4D
1536646054.93,2835,17.69,74516.8,5.13,-11.89,-12.89,0,*45
1536646056.13,2836,17.69,74518.8,5.11,-11.41,-12.25,0,*46
1536646057.35,2837,17.69,74518.3,5.11,-11.11,-11.93,0,*4C
1536646058.62,2838,17.69,74514.5,5.13,-10.79,-11.63,0,*41
1536646059.87,2839,17.69,74522.8,5.13,-11.01,-11.93,0,*41
1536646061.12,2840,17.69,74518.3,5.15,-11.07,-11.89,0,*44
1536646062.37,2841,17.69,74520.8,5.17,-11.01,-11.89,0,*41
1536646063.59,2842,17.69,74526.5,5.15,-10.93,-11.63,0,*4E
1536646064.84,2843,17.69,74524.8,5.17,-11.29,-12.03,0,*48
1536646066.07,2844,17.69,74520.8,5.15,-11.01,-11.89,0,*46
1536646067.31,2845,17.69,74524.8,5.17,-10.85,-11.59,0,*45
1536646068.56,2846,17.69,74524.3,5.17,-10.97,-11.85,0,*44
1536646069.79,2847,17.69,74526.0,5.21,-10.85,-11.77,0,*4E
1536646071.02,2848,17.69,74522.5,5.21,-10.85,-11.77,0,*41
1536646072.24,2849,17.69,74526.8,5.19,-10.89,-11.67,0,*46
1536646073.49,2850,17.69,74528.0,5.21,-10.97,-11.85,0,*46
1536646074.73,2851,17.69,74524.0,5.21,-11.29,-12.25,0,*4A
1536646075.95,2852,17.69,74522.5,5.23,-11.11,-11.93,0,*4E
1536646077.19,2853,17.69,74526.5,5.21,-11.15,-12.11,0,*40
1536646078.41,2854,17.69,74524.3,5.23,-10.97,-11.81,0,*44
1536646079.65,2855,17.69,74526.0,5.23,-11.67,-12.79,0,*4F
1536646080.86,2856,17.69,74526.0,5.25,-11.45,-12.43,0,*43
1536646082.08,2857,17.69,74526.5,5.23,-11.23,-12.07,0,*44
1536646083.29,2858,17.69,74528.0,5.23,-11.01,-11.85,0,*42
1536646084.51,2859,17.69,74524.8,5.25,-11.19,-12.07,0,*45
1536646085.71,2860,17.69,74524.8,5.25,-11.19,-12.03,0,*4B
1536646086.95,2861,17.69,74522.8,5.25,-11.37,-12.35,0,*43
1536646088.19,2862,17.69,74520.0,5.23,-11.81,-12.61,0,*4A
1536646089.44,2863,17.69,74526.0,5.25,-11.89,-12.75,0,*40
1536646090.68,2864,17.69,74524.5,5.25,-11.59,-12.57,0,*4A
1536646091.9,2865,17.69,74520.0,5.23,-12.11,-13.11,0,*41
1536646093.11,2866,17.69,74520.3,5.23,-12.65,-13.65,0,*42
1536646094.36,2867,17.69,74520.0,5.21,-12.35,-13.19,0,*4F
1536646095.6,2868,17.69,74516.8,5.21,-11.63,-12.47,0,*4A
1536646096.87,2869,17.69,74520.0,5.21,-11.51,-12.35,0,*4F
1536646098.12,2870,17.69,74520.0,5.21,-11.29,-12.21,0,*4D
1536646099.36,2871,17.69,74522.8,5.23,-11.51,-12.35,0,*44
1536646100.58,2872,17.69,74520.5,5.23,-11.29,-12.21,0,*4D
1536646101.82,2873,17.69,74522.3,5.23,-11.85,-12.65,0,*4A
1536646103.03,2874,17.69,74522.5,5.23,-12.61,-13.47,0,*45
1536646104.29,2875,17.69,74518.0,5.21,-12.65,-13.61,0,*46
1536646105.51,2876,17.69,74520.0,5.19,-12.79,-13.73,0,*40
1536646106.73,2877,17.69,74522.3,5.19,-12.11,-12.97,0,*44
1536646107.95,2878,17.69,74522.3,5.19,-11.59,-12.43,0,*4D
1536646109.17,2879,17.69,74522.5,5.19,-11.29,-12.25,0,*4B
1536646110.4,2880,17.69,74518.3,5.19,-11.55,-12.43,0,*46